Date String (YYYY-MM-DD hh:mm:ss) UTC,Instrument flags,absolute air pressure of the measurement (hPa),sample flow rate (lpm),inlet stack bypass flow (lpm),air temperature of the measurement (°C),ambient temperature measured by the external sensor (°C),aerosol sample conditioner tube jacket temperature (°C),OPC LED temperature (°C),internal box temperature (°C),relative humidity of the measurement (%),span deviation,mass concentration of particles derived from Lorenz-Mie calculation of OPC scattering (μg/m³),mass concentration of particles derived from Lorenz-Mie calculation of OPC scattering (μg/m³),mass concentration of particles derived from Lorenz-Mie calculation of OPC scattering (μg/m³)
DateTimeUTC,F1_M11,P_M11,Q1_M11,Q2_M11,T1_M11,T2_M11,T3_M11,T4_M11,T5_M11,U1_M11,ZSPAN_M11,X2_M11,X0_M11,X1_M11
2023-09-01 04:00:00,SystemResetWarning,0829.3,5.00,000.00,027.9,026.7,000.0,036.1,029.6,22.9,0000.0,0004.50,0014.64,0003.55
2023-09-01 04:01:00,SystemResetWarning,0829.4,5.00,000.00,027.9,026.9,000.0,036.2,029.7,23.1,0000.0,0004.54,0015.22,0003.56
2023-09-01 04:02:00,SystemResetWarning,0829.3,4.99,000.00,028.0,026.6,000.0,036.2,029.7,22.8,0000.0,0004.57,0015.16,0003.59
2023-09-01 04:03:00,SystemResetWarning,0829.3,4.99,000.00,027.9,024.9,000.0,036.1,029.1,22.2,0000.0,0004.57,0015.69,0003.59
2023-09-01 04:04:00,SystemResetWarning,0829.2,5.02,000.00,027.7,023.8,000.0,036.0,028.8,22.2,0000.0,0004.54,0015.64,0003.59
2023-09-01 04:05:00,SystemResetWarning,0829.2,5.00,000.00,027.6,023.9,000.0,036.0,028.8,21.9,0000.0,0004.56,0015.08,0003.60
2023-09-01 04:06:00,SystemResetWarning,0829.2,5.00,000.00,027.6,024.3,000.0,036.0,028.8,21.5,0000.0,0004.67,0014.61,0003.62
2023-09-01 04:07:00,SystemResetWarning,0829.2,5.00,000.00,027.5,024.7,000.0,036.0,028.9,22.0,0000.0,0004.70,0014.06,0003.64
2023-09-01 04:08:00,SystemResetWarning,0829.2,5.00,000.00,027.6,025.1,000.0,036.0,029.1,22.1,0000.0,0004.73,0013.51,0003.65
2023-09-01 04:09:00,SystemResetWarning,0829.2,5.00,000.00,027.6,025.5,000.0,036.0,029.2,22.7,0000.0,0004.76,0012.99,0003.65
2023-09-01 04:10:00,SystemResetWarning,0829.2,5.00,000.00,027.7,025.9,000.0,036.0,029.3,22.3,0000.0,0004.77,0013.25,0003.63
2023-09-01 04:11:00,SystemResetWarning,0829.2,5.00,000.00,027.7,026.2,000.0,036.0,029.4,21.2,0000.0,0004.74,0014.81,0003.64
2023-09-01 04:12:00,SystemResetWarning,0829.2,5.00,000.00,027.8,026.4,000.0,036.1,029.5,21.4,0000.0,0004.72,0015.07,0003.64
2023-09-01 04:13:00,SystemResetWarning,0829.2,5.00,000.00,027.8,026.7,000.0,036.1,029.6,21.4,0000.0,0004.71,0015.68,0003.63
2023-09-01 04:14:00,SystemResetWarning,0829.2,5.00,000.00,027.9,026.8,000.0,036.1,029.7,21.9,0000.0,0004.73,0016.34,0003.63
2023-09-01 04:15:00,SystemResetWarning,0829.2,5.00,000.00,027.9,026.9,000.0,036.1,029.7,21.1,0000.0,0004.74,0016.48,0003.64
2023-09-01 04:16:00,SystemResetWarning,0829.2,4.99,000.00,027.9,025.6,000.0,036.1,029.3,21.2,0000.0,0004.71,0017.11,0003.64
2023-09-01 04:17:00,SystemResetWarning,0829.2,5.01,000.00,027.8,024.7,000.0,036.0,029.0,21.5,0000.0,0004.64,0017.67,0003.65
2023-09-01 04:18:00,SystemResetWarning,0829.2,5.01,000.00,027.7,024.8,000.0,036.0,029.0,21.1,0000.0,0004.67,0017.59,0003.65
2023-09-01 04:19:00,SystemResetWarning,0829.2,4.98,000.00,027.7,025.0,000.0,036.0,029.0,21.4,0000.0,0004.64,0017.43,0003.65
2023-09-01 04:20:00,SystemResetWarning,0829.2,4.99,000.00,027.7,025.4,000.0,036.0,029.2,21.7,0000.0,0004.61,0017.42,0003.65
2023-09-01 04:21:00,SystemResetWarning,0829.2,5.02,000.00,027.7,025.7,000.0,036.1,029.3,21.9,0000.0,0004.57,0017.27,0003.66
2023-09-01 04:22:00,SystemResetWarning,0829.3,5.01,000.00,027.8,026.1,000.0,036.1,029.4,22.0,0000.0,0004.53,0015.72,0003.65
2023-09-01 04:23:00,SystemResetWarning,0829.3,4.99,000.00,027.8,026.3,000.0,036.1,029.5,21.9,0000.0,0004.56,0015.46,0003.65
2023-09-01 04:24:00,SystemResetWarning,0829.3,5.00,000.00,027.9,026.6,000.0,036.2,029.6,22.0,0000.0,0004.55,0014.68,0003.64
2023-09-01 04:25:00,SystemResetWarning,0829.3,4.99,000.00,027.9,026.8,000.0,036.2,029.7,21.6,0000.0,0004.54,0013.63,0003.63
2023-09-01 04:26:00,SystemResetWarning,0829.3,5.00,000.00,028.0,026.9,000.0,036.2,029.7,21.6,0000.0,0004.53,0013.33,0003.64
2023-09-01 04:27:00,SystemResetWarning,0829.2,4.99,000.00,028.0,025.9,000.0,036.2,029.4,21.7,0000.0,0004.56,0013.89,0003.64
2023-09-01 04:28:00,SystemResetWarning,0829.1,5.00,000.00,027.8,024.2,000.0,036.1,028.9,21.4,0000.0,0004.60,0013.13,0003.65
2023-09-01 04:29:00,SystemResetWarning,0829.1,5.02,000.00,027.7,023.7,000.0,036.0,028.8,21.1,0000.0,0004.56,0013.21,0003.65
2023-09-01 04:30:00,SystemResetWarning,0829.0,5.00,000.00,027.6,024.0,000.0,036.0,028.7,21.3,0000.0,0004.56,0013.29,0003.65
2023-09-01 04:31:00,SystemResetWarning,0829.0,5.00,000.00,027.6,024.4,000.0,036.0,028.8,21.5,0000.0,0004.57,0013.56,0003.64
2023-09-01 04:32:00,SystemResetWarning,0829.0,5.00,000.00,027.6,024.8,000.0,036.0,029.0,21.7,0000.0,0004.56,0014.18,0003.62
2023-09-01 04:33:00,SystemResetWarning,0829.0,5.00,000.00,027.6,025.3,000.0,036.0,029.1,21.6,0000.0,0004.56,0014.04,0003.59
2023-09-01 04:34:00,SystemResetWarning,0829.0,5.00,000.00,027.6,025.7,000.0,036.0,029.2,21.6,0000.0,0004.50,0013.35,0003.56
2023-09-01 04:35:00,SystemResetWarning,0829.1,4.99,000.00,027.7,026.0,000.0,036.0,029.3,21.7,0000.0,0004.48,0013.86,0003.54
2023-09-01 04:36:00,SystemResetWarning,0829.1,5.00,000.00,027.7,026.3,000.0,036.1,029.4,21.5,0000.0,0004.43,0013.59,0003.52
2023-09-01 04:37:00,SystemResetWarning,0829.1,5.01,000.00,027.8,026.5,000.0,036.1,029.5,21.2,0000.0,0004.41,0013.43,0003.49
2023-09-01 04:38:00,SystemResetWarning,0829.1,5.00,000.00,027.8,026.7,000.0,036.1,029.6,21.1,0000.0,0004.34,0012.62,0003.45
2023-09-01 04:39:00,SystemResetWarning,0829.1,5.00,000.00,027.9,026.9,000.0,036.1,029.6,21.1,0000.0,0004.27,0011.97,0003.40
2023-09-01 04:40:00,SystemResetWarning,0829.1,4.99,000.00,027.9,027.0,000.0,036.2,029.7,21.0,0000.0,0004.25,0012.08,0003.36
2023-09-01 04:41:00,SystemResetWarning,0829.1,4.99,000.00,028.0,026.6,000.0,036.2,029.6,20.9,0000.0,0004.20,0011.85,0003.34
2023-09-01 04:42:00,SystemResetWarning,0829.0,4.99,000.00,027.9,024.8,000.0,036.1,029.1,20.9,0000.0,0004.19,0011.50,0003.32
2023-09-01 04:43:00,SystemResetWarning,0828.9,5.01,000.00,027.7,023.8,000.0,036.0,028.7,21.2,0000.0,0004.18,0011.85,0003.31
2023-09-01 04:44:00,SystemResetWarning,0828.9,5.01,000.00,027.6,023.9,000.0,036.0,028.7,21.6,0000.0,0004.17,0014.42,0003.30
2023-09-01 04:45:00,SystemResetWarning,0828.9,4.99,000.00,027.5,024.2,000.0,036.0,028.7,21.7,0000.0,0004.12,0014.31,0003.29
2023-09-01 04:46:00,SystemResetWarning,0828.9,5.00,000.00,027.5,024.7,000.0,036.0,028.9,21.8,0000.0,0004.09,0013.94,0003.29
2023-09-01 04:47:00,SystemResetWarning,0828.9,5.00,000.00,027.5,025.1,000.0,036.0,029.0,21.7,0000.0,0004.10,0013.95,0003.29
2023-09-01 04:48:00,SystemResetWarning,0829.0,5.00,000.00,027.6,025.5,000.0,036.0,029.2,21.4,0000.0,0004.06,0013.48,0003.29
2023-09-01 04:49:00,SystemResetWarning,0829.0,5.00,000.00,027.6,025.8,000.0,036.0,029.3,21.2,0000.0,0004.09,0013.43,0003.30
2023-09-01 04:50:00,SystemResetWarning,0829.0,5.00,000.00,027.6,026.1,000.0,036.0,029.4,21.1,0000.0,0004.09,0013.33,0003.32
2023-09-01 04:51:00,SystemResetWarning,0829.1,5.00,000.00,027.7,026.4,000.0,036.0,029.4,21.1,0000.0,0004.08,0012.93,0003.33
2023-09-01 04:52:00,SystemResetWarning,0829.1,5.00,000.00,027.8,026.6,000.0,036.1,029.5,21.7,0000.0,0004.05,0013.00,0003.34
2023-09-01 04:53:00,SystemResetWarning,0829.1,5.00,000.00,027.8,026.7,000.0,036.1,029.6,21.7,0000.0,0004.01,0013.29,0003.34
2023-09-01 04:54:00,SystemResetWarning,0829.1,4.98,000.00,027.9,026.9,000.0,036.1,029.7,21.3,0000.0,0003.97,0012.19,0003.35
2023-09-01 04:55:00,SystemResetWarning,0829.1,5.00,000.00,027.9,027.0,000.0,036.2,029.7,21.3,0000.0,0003.93,0009.27,0003.36
2023-09-01 04:56:00,SystemResetWarning,0829.1,5.00,000.00,028.0,027.2,000.0,036.2,029.8,21.2,0000.0,0003.98,0009.12,0003.38
2023-09-01 04:57:00,SystemResetWarning,0829.1,4.99,000.00,028.0,026.7,000.0,036.2,029.7,21.2,0000.0,0004.03,0009.77,0003.38
2023-09-01 04:58:00,SystemResetWarning,0829.0,5.00,000.00,027.9,025.2,000.0,036.2,029.2,21.2,0000.0,0004.01,0010.11,0003.38
2023-09-01 04:59:00,SystemResetWarning,0828.9,5.01,000.00,027.8,024.7,000.0,036.1,029.1,21.3,0000.0,0004.04,0010.36,0003.38
